This is the latest recevied weather packets stored in our database for station/object WR9A-13. If no packets are shown the sender has not sent any weather packets the latest 10 day(s).
| Time | Temp. | Humidity | Pressure | Rain* | Wind** | Luminosity | Snow |
|---|---|---|---|---|---|---|---|
| 1787769928 | 30° C | 65% | 1014.2 hPa | 0 mm | - | - | - |
| 1787769615 | 30° C | 66% | 1014.1 hPa | 0 mm | - | - | - |
| 1787769332 | 30° C | 65% | 1014.3 hPa | 0 mm | - | - | - |
| 1787769028 | 30° C | 66% | 1014.4 hPa | 0 mm | - | - | - |
| 1787768716 | 30° C | 66% | 1014.4 hPa | 0 mm | - | - | - |
| 1787768434 | 30° C | 68% | 1014.3 hPa | 0 mm | - | - | - |
| 1787768122 | 29.44° C | 68% | 1014.3 hPa | 0 mm | - | - | - |
| 1787767838 | 29.44° C | 67% | 1014.4 hPa | 0 mm | - | - | - |
| 1787767526 | 29.44° C | 67% | 1014.5 hPa | 0 mm | - | - | - |
| 1787767216 | 29.44° C | 67% | 1014.5 hPa | 0 mm | - | - | - |
| 1787766936 | 29.44° C | 67% | 1014.5 hPa | 0 mm | - | - | - |
| 1787766623 | 28.89° C | 66% | 1014.6 hPa | 0 mm | - | - | - |
| 1787766340 | 29.44° C | 67% | 1014.7 hPa | 0 mm | - | - | - |
| 1787766027 | 28.89° C | 66% | 1014.6 hPa | 0 mm | - | - | - |
| 1787765715 | 28.89° C | 68% | 1014.7 hPa | 0 mm | - | - | - |
| 1787765432 | 28.89° C | 68% | 1014.7 hPa | 0 mm | - | - | - |
| 1787765121 | 28.89° C | 66% | 1014.8 hPa | 0 mm | - | - | - |
| 1787764818 | 28.89° C | 67% | 1014.7 hPa | 0 mm | - | - | - |
| 1787764536 | 28.33° C | 68% | 1014.8 hPa | 0 mm | - | - | - |
| 1787764225 | 28.33° C | 68% | 1014.8 hPa | 0 mm | - | - | - |
| 1787763942 | 28.33° C | 69% | 1014.8 hPa | 0 mm | - | - | - |
| 1787763623 | 27.78° C | 68% | 1014.9 hPa | 0 mm | - | - | - |
| 1787763320 | 27.78° C | 68% | 1015 hPa | 0 mm | - | - | - |
| 1787763028 | 27.78° C | 67% | 1015.1 hPa | 0 mm | - | - | - |
| 1787762725 | 27.78° C | 67% | 1015.1 hPa | 0 mm | - | - | - |
* Rain latest hour (hover to see other rain measurements)
** Current wind speed in m/s (hover to see current wind gust speed)